Regional Weather Roundup
Issued by NWS Bismarck, ND

Home | Current Version | Previous Version | Text Only | Print | Product List | Glossary On
Versions: 1 2 3 4 5 6 7 8 9 10 11 12 13 14 15 16 17 18 19 20 21 22 23 24 25 26 27 28 29 30 31 32 33 34 35 36 37 38 39 40 41 42 43 44 45 46 47 48 49 50
000
ASUS43 KBIS 290020
RWRBIS

NWR BROADCAST TEXT
NATIONAL WEATHER SERVICE BISMARCK ND
700 PM CDT MON JUL 28 2014

NOTE: "FAIR" INDICATES FEW OR NO CLOUDS BELOW 12,000 FEET WITH NO
SIGNIFICANT WEATHER AND/OR OBSTRUCTIONS TO VISIBILITY.


CITY           SKY/WX    TMP DP  RH WIND       PRES   REMARKS
WILLISTON      MOSUNNY   80  50  34 E7        30.22F
MINOT          SUNNY     73  54  51 NE3       30.23F
MINOT AFB      SUNNY     74  55  51 NE3       30.23F
BISMARCK       MOSUNNY   75  49  39 NE7       30.25F
DICKINSON      SUNNY     77  53  43 E7        30.24F
GARRISON         N/A     73  57  57 SE5       30.25F
HETTINGER ARPT SUNNY     76  51  41 E10       30.26F
JAMESTOWN      CLOUDY    70  52  52 N3        30.23F
CARRINGTON     FAIR      70  54  56 CALM      30.25F
CROSBY         MOCLDY    72  63  73 E5        30.23S
HARVEY         FAIR      70  54  56 NE7       30.24F
HAZEN          FAIR      75  52  43 NE5       30.25S
LINTON         FAIR      73  52  46 NE7       30.24F
MANDAN         FAIR      73  50  43 NW5       30.26F
RUGBY          FAIR      68  54  60 NW6       30.23F
STANLEY        FAIR      73  55  53 CALM      30.25S
TIOGA          FAIR      73  55  53 SE6       30.27S
WATFORD CITY   FAIR      77  54  44 E6        30.21S
$$

CITY           SKY/WX    TMP DP  RH WIND       PRES   REMARKS
GRAND FORKS    MOSUNNY   73  54  51 N5        30.19F
GRAND FORKS AF MOSUNNY   73  56  55 N8        30.20F
DEVILS LAKE    MOSUNNY   72  52  49 NW8       30.21F
FARGO          PTSUNNY   73  53  49 N6        30.19F
CANDO          FAIR      72  54  53 NW5       30.24S
CAVALIER       FAIR      73  54  49 NW6       30.20S
GRAFTON        FAIR      72  54  53 NW6       30.19F
GWINNER        MOCLDY    70  52  52 NW7       30.23F
LANGDON        FAIR      70  50  49 NW6       30.23S
ROLLA          FAIR      72  48  43 NW6       30.25F
WALHALLA         N/A     72  55  56 N6          N/A
$$

CITY           SKY/WX    TMP DP  RH WIND       PRES   REMARKS
ABERDEEN       SUNNY     72  51  47 NE6       30.23F
MOBRIDGE       MOSUNNY   76  51  41 NE10      30.22F
BUFFALO          N/A     78  52  40 E14       30.19F
RAPID CITY     PTSUNNY   78  54  43 SE8       30.24F
GLASGOW        MOSUNNY   89  45  21 SE9       30.17F
SIDNEY         SUNNY     82  48  30 NE9       30.21F
WOLF POINT     SUNNY     89  46  22 E14       30.18F
GLENDIVE       SUNNY     82  46  28 E9        30.21F
MILES CITY     MOSUNNY   86  45  23 NE17      30.18S
BAKER          MOSUNNY   83  49  30 E10       30.23F
$$

CITY           SKY/WX    TMP DP  RH WIND       PRES   REMARKS
BILLINGS       MOSUNNY   90  46  21 NE17      30.17F
GREAT FALLS    PTSUNNY   91  36  14 NE6       30.13F
REGINA         MOSUNNY   77  57  50 NW6       30.22F
ESTEVAN        MOSUNNY   75  57  53 SE2       30.23F
$$



USA.gov is the U.S. government's official web portal to all federal, state and local government web resources and services.